GFSSE_700_spd_021.txt.gz
Wind_Speed
10 10 12 13 14 13 11 11 10 10 9 8 8 7 8 8 7 7 7 6 7 5 4 6 6 6 6 7 6 7 8 8 8 8 8 9 9 10 11 12 12 13 12
10 12 13 16 16 13 11 10 10 9 9 8 7 6 7 6 7 8 5 5 6 5 3 4 4 4 5 5 5 6 7 7 8 8 8 8 9 10 10 10 13 12 12
9 12 13 15 15 13 12 11 10 10 9 8 8 7 6 6 7 6 4 2 4 4 4 4 3 2 1 3 5 5 6 6 6 7 8 8 8 8 10 9 10 11 11
9 11 12 14 14 14 13 12 11 10 9 8 8 7 6 6 6 5 4 2 2 3 4 4 3 2 1 3 6 6 5 5 5 6 6 7 7 7 8 9 9 9 9
8 12 13 13 14 14 13 12 12 11 9 8 8 7 6 5 5 3 2 2 2 2 3 3 2 0 2 4 6 6 6 5 5 4 14 6 5 5 6 8 8 8 8
11 15 14 15 13 13 12 12 11 10 9 8 8 7 6 5 3 2 2 2 2 1 2 2 1 0 2 5 7 6 6 5 3 5 6 4 5 6 5 6 7 7 7
13 14 14 15 13 11 10 10 10 9 8 7 7 7 6 4 3 1 1 1 1 1 2 2 1 1 3 4 8 8 7 5 3 6 2 3 4 4 5 5 6 6 6
13 14 15 15 13 11 9 9 9 9 8 7 6 6 6 5 2 1 0 1 1 1 1 3 1 1 1 4 7 7 7 6 4 1 5 3 4 3 3 4 5 6 6
13 15 16 16 13 11 11 10 9 8 8 7 6 4 3 3 3 1 1 2 2 1 1 2 2 3 2 2 6 8 7 6 8 7 2 4 3 3 3 3 4 5 5
12 11 15 16 15 13 10 9 9 8 7 7 6 5 4 0 0 0 2 4 3 3 2 2 2 1 4 4 6 7 8 7 6 6 6 5 4 4 3 3 3 4 4
9 12 12 15 15 14 13 11 10 10 9 8 5 5 4 4 3 3 4 5 5 5 5 4 4 4 1 2 4 6 8 8 7 7 11 6 5 5 5 5 4 3 3
5 8 11 12 15 16 15 13 12 11 11 11 8 8 9 9 7 7 6 8 8 8 7 6 5 5 6 2 7 3 8 10 11 10 10 8 9 7 7 7 6 4 4
7 7 8 11 13 15 16 15 17 13 12 12 12 10 10 11 9 11 12 12 12 12 11 8 8 8 8 9 7 4 4 9 12 12 8 10 12 10 9 10 9 8 6
5 5 6 9 13 15 18 16 16 15 15 14 13 12 13 15 14 13 15 20 18 17 12 13 10 8 10 10 9 10 7 8 7 12 11 15 13 13 14 14 14 12 13
5 7 7 5 9 13 14 18 19 21 25 15 17 16 15 15 18 17 20 23 30 21 22 20 18 10 8 9 10 12 12 12 9 10 13 16 18 16 17 16 18 16 15
6 5 3 2 8 10 14 15 17 19 19 15 16 18 16 18 16 16 21 26 33 26 25 20 15 11 8 8 9 10 13 13 15 12 16 16 18 21 20 22 21 19 12
10 6 2 4 5 12 14 15 16 16 16 16 11 23 15 16 17 16 17 17 19 28 30 30 8 13 12 15 17 18 16 15 17 18 11 18 22 21 23 24 21 23 9
15 10 8 8 9 13 16 14 14 14 14 14 15 15 13 13 15 15 13 11 13 25 22 21 16 20 17 18 18 22 22 20 18 19 20 21 20 19 21 25 24 22 20
16 13 13 15 12 9 16 16 12 10 10 10 10 11 12 15 17 17 18 15 16 16 16 16 16 20 19 23 24 22 24 22 21 21 21 20 20 18 22 21 25 27 24
16 14 15 17 19 18 13 17 11 11 9 9 10 13 17 20 21 22 24 23 21 20 19 19 23 19 26 23 23 26 27 23 26 23 23 21 20 22 22 24 24 26 24
14 16 18 21 23 23 17 21 12 9 10 12 11 16 18 22 23 25 25 27 25 24 23 24 21 27 24 25 24 21 22 25 27 23 22 24 22 21 23 24 25 18 18
13 15 17 22 24 25 13 16 13 10 12 12 14 16 20 20 22 25 23 25 27 26 28 27 28 28 27 25 23 21 18 16 21 23 23 23 23 22 20 21 18 17 14
12 13 17 13 5 3 9 12 9 8 9 12 14 18 22 21 22 21 20 19 22 24 26 28 30 31 29 28 27 24 15 15 14 23 21 22 23 20 18 18 16 17 15
11 11 14 4 8 15 14 11 5 8 9 12 13 16 18 20 21 20 18 16 14 18 19 23 26 30 30 28 28 26 24 23 25 24 23 17 21 20 17 17 17 13 11
8 7 8 2 9 10 7 5 4 6 9 11 12 15 17 20 19 16 14 13 12 14 17 20 23 22 26 28 29 25 22 22 24 24 21 20 19 21 18 17 14 12 14
6 2 5 5 8 2 4 2 2 6 10 12 12 15 17 19 21 12 11 11 13 14 15 15 18 21 23 25 26 24 23 20 22 22 22 20 19 22 23 23 12 9 21

GFSSE_700_spd_024.txt.gz
Wind_Speed
12 12 13 12 12 11 11 10 9 10 10 10 9 9 9 8 9 8 9 8 8 8 8 8 8 8 7 7 8 9 9 9 9 10 11 11 10 10 11 13 15 13 13
9 10 10 12 12 11 11 10 11 11 11 10 10 9 9 8 7 8 8 9 6 6 7 6 5 6 6 5 6 8 9 9 9 9 10 10 10 10 11 11 13 13 12
7 9 10 11 11 11 11 11 11 11 10 10 10 10 9 7 7 7 7 6 5 3 5 6 4 5 5 4 5 7 8 8 8 9 9 11 9 9 10 11 12 12 11
7 10 12 12 11 12 11 11 11 11 10 9 9 9 9 8 8 7 7 5 4 3 3 5 3 2 5 5 5 5 6 8 8 9 7 11 10 8 7 9 10 10 10
10 12 13 13 13 12 11 11 10 10 10 9 9 8 8 8 6 5 6 5 3 5 3 4 2 1 2 6 7 5 5 6 9 7 8 9 9 7 6 7 8 9 8
10 12 12 12 11 11 11 11 10 9 9 8 8 7 6 5 4 4 3 3 2 3 4 4 2 1 2 6 8 6 6 5 7 10 6 9 8 6 7 6 7 8 8
4 12 12 12 11 11 11 11 10 10 9 9 8 7 5 4 3 4 3 1 2 4 2 2 0 1 3 5 8 7 5 4 4 7 10 5 6 6 6 5 5 7 7
7 10 13 13 12 11 11 10 9 9 9 9 9 8 6 3 2 2 3 2 1 3 1 3 2 2 2 4 8 8 7 5 4 6 6 4 5 4 4 4 4 5 6
11 11 12 13 12 10 10 11 10 9 8 8 7 7 7 5 2 1 1 1 1 3 3 3 2 3 3 3 6 7 7 7 8 8 7 4 5 3 3 3 4 4 5
4 11 14 14 13 11 10 10 9 8 8 8 6 4 3 3 3 2 1 2 2 1 3 4 3 4 3 2 4 8 8 6 7 9 14 6 5 2 2 2 3 4 4
9 6 13 14 14 12 10 10 10 9 8 8 7 6 5 5 5 4 4 3 4 4 4 5 5 6 5 3 3 6 8 9 8 7 7 8 5 3 4 3 3 3 3
7 7 11 13 14 15 13 12 11 10 10 11 9 8 9 8 6 8 6 6 6 6 7 7 7 7 7 6 5 5 9 10 11 10 5 9 6 5 5 5 5 5 3
8 11 7 10 11 15 15 16 14 13 14 18 14 9 9 7 9 10 7 8 10 11 11 10 10 11 10 10 4 6 5 8 10 12 7 11 9 8 8 9 9 7 3
1 6 6 6 9 12 16 19 19 17 20 18 12 11 8 9 13 13 13 14 14 14 17 16 14 14 12 12 9 9 7 5 5 10 11 12 9 9 11 12 12 10 10
10 5 5 3 4 6 14 21 13 13 15 19 15 10 13 14 15 14 18 21 21 18 21 22 21 21 12 11 11 9 11 9 9 8 9 9 9 12 14 15 15 13 15
14 11 2 3 3 6 8 14 14 15 17 9 14 13 15 15 16 17 18 19 21 23 30 27 27 29 14 13 12 10 10 10 13 12 11 10 11 11 15 17 16 16 17
13 11 3 2 4 10 7 10 12 16 17 17 13 13 11 12 16 16 18 18 16 20 15 20 22 24 29 21 18 15 12 11 12 15 15 13 12 14 15 18 17 17 16
12 10 9 11 12 11 10 8 10 14 15 15 16 16 13 10 11 14 16 17 14 15 15 19 21 24 15 12 17 17 19 15 15 14 15 17 13 18 17 15 15 16 19
12 10 13 15 17 18 12 9 8 10 13 10 12 12 11 9 13 15 18 18 17 15 14 19 19 21 19 16 21 23 14 15 17 16 16 18 21 21 18 17 11 14 16
14 14 14 16 19 23 18 13 8 7 8 9 11 17 18 10 14 18 21 22 22 19 20 20 19 22 22 20 22 22 23 23 21 18 17 19 20 19 19 19 17 15 16
15 15 15 18 20 25 28 24 14 8 9 6 13 21 22 15 16 22 23 25 24 22 21 23 25 27 27 20 15 16 18 17 21 18 16 18 20 19 19 19 20 17 18
16 14 12 15 19 21 24 4 14 8 7 9 12 14 18 17 18 20 24 24 23 24 23 21 25 23 21 19 21 20 19 18 14 14 12 13 20 18 18 19 21 22 19
14 10 11 11 12 11 3 6 14 9 7 7 11 15 17 21 23 23 21 21 21 22 17 18 22 25 25 25 23 23 20 14 12 15 15 12 15 18 17 18 20 19 18
10 9 9 4 7 7 14 12 7 4 7 12 15 15 18 20 22 19 17 16 15 16 16 14 17 21 26 26 27 26 22 18 17 19 21 19 15 15 18 18 19 17 16
9 9 9 1 9 11 10 4 2 5 10 12 13 14 16 19 22 21 16 13 12 14 15 15 15 17 20 20 24 22 23 23 24 24 23 21 16 16 17 19 20 18 16
6 5 6 5 2 5 6 4 4 6 10 12 13 14 15 19 21 18 17 13 13 14 15 15 15 13 15 16 18 20 22 23 18 19 17 20 19 15 18 18 20 21 27

GFSSE_700_spd_030.txt.gz
Wind_Speed
18 14 12 13 12 11 11 11 11 10 11 11 11 11 12 12 11 10 10 8 9 9 9 10 11 12 10 11 13 11 10 12 11 15 13 12 13 14 10 11 14 12 13
12 14 13 12 11 10 10 11 10 9 10 11 11 11 10 10 10 10 9 8 8 8 8 8 9 10 11 8 11 11 9 11 11 12 13 12 12 13 11 8 12 12 12
10 12 11 11 10 10 9 10 10 10 10 11 11 11 11 10 9 10 9 8 7 7 8 6 7 7 9 8 8 10 10 10 9 9 11 13 12 14 13 9 10 11 11
8 11 11 11 10 9 9 10 9 9 9 10 10 10 10 10 9 8 7 6 6 7 7 8 6 4 7 8 6 8 11 9 9 9 7 11 12 12 12 10 8 8 10
7 10 11 11 10 9 9 9 8 8 8 9 9 9 9 9 8 7 6 6 6 7 7 6 6 5 7 8 6 7 9 7 5 6 7 8 12 12 11 10 8 8 7
8 10 11 10 9 8 9 9 8 7 8 7 7 7 7 7 8 7 6 5 6 6 5 4 5 6 9 9 8 6 7 7 8 5 6 7 8 10 9 8 8 7 7
8 9 9 8 7 7 7 8 7 6 7 7 6 6 5 5 5 6 6 6 6 5 4 3 3 6 9 8 8 8 5 4 5 7 7 6 7 7 7 6 7 6 5
8 10 10 7 6 5 6 7 6 6 7 7 7 5 4 5 4 5 5 5 4 3 4 3 3 3 6 8 9 7 7 5 3 4 5 7 7 7 6 5 4 4 4
9 9 10 9 7 7 7 7 7 7 7 7 7 5 3 2 3 3 4 4 4 4 4 3 3 3 5 5 7 7 7 7 6 4 5 4 5 5 5 5 4 3 3
8 10 10 10 9 8 8 7 6 6 6 6 6 5 2 1 1 2 3 3 3 2 3 4 2 2 3 5 6 7 7 6 7 3 4 3 2 3 4 5 4 2 2
2 7 11 11 11 10 9 9 8 8 7 7 6 5 3 2 2 2 2 3 4 3 4 4 4 4 3 4 6 7 9 10 7 7 6 5 5 3 3 3 4 3 2
1 5 8 12 12 12 11 10 10 10 10 10 10 9 7 5 7 5 4 4 2 3 4 6 6 7 8 7 6 8 11 12 10 9 9 7 5 4 4 5 3 3 3
7 1 6 9 11 12 12 12 13 13 12 11 10 11 9 7 8 8 7 6 6 5 5 7 7 9 9 11 11 9 12 13 11 10 9 9 11 9 6 7 5 5 6
10 7 4 3 9 12 14 14 14 13 14 17 13 13 13 15 11 12 11 14 10 8 7 10 10 12 12 12 13 12 12 10 12 12 13 12 11 9 10 10 9 7 8
9 5 4 8 7 6 8 10 13 14 14 19 14 12 12 11 14 15 15 16 13 14 13 12 12 15 16 15 15 15 14 13 9 9 12 14 13 12 12 12 11 11 11
8 6 2 3 5 4 2 5 10 13 12 13 12 14 14 15 12 15 17 14 12 13 14 14 16 21 24 20 16 19 14 17 17 10 11 11 12 15 14 15 14 13 13
6 7 6 8 7 6 8 5 14 14 12 11 13 10 7 9 12 16 14 12 14 16 14 15 17 19 22 25 19 20 19 19 20 17 16 15 13 14 13 14 14 14 16
8 9 7 9 12 11 12 14 16 12 12 11 10 8 6 8 7 8 12 13 16 16 17 18 16 13 8 17 17 22 20 23 21 18 17 17 16 17 15 15 14 15 17
9 10 10 10 11 13 17 17 19 18 12 10 4 4 1 3 10 12 13 17 18 20 18 18 17 15 15 15 18 15 22 25 21 20 19 19 17 16 18 17 18 17 16
10 12 13 12 12 17 17 20 21 8 10 6 4 4 6 9 10 10 15 15 20 23 21 19 22 23 20 18 18 25 26 34 31 26 24 17 17 19 19 19 19 16 16
11 13 12 13 17 19 18 18 13 15 5 4 3 4 8 8 11 12 15 19 22 22 23 21 20 22 23 19 20 21 21 24 25 29 23 21 24 22 22 21 20 18 16
12 14 10 14 15 15 11 7 9 17 10 5 3 5 7 9 11 14 16 16 20 18 18 18 19 21 21 23 24 24 25 28 23 17 17 16 22 22 20 20 20 19 18
10 9 9 9 10 7 18 21 16 13 6 1 3 6 7 8 9 10 14 15 14 11 12 14 17 19 21 22 22 24 25 21 29 19 20 18 18 16 15 17 20 18 18
7 7 6 2 4 8 15 16 13 8 5 2 5 7 7 7 9 12 13 13 12 9 11 12 12 14 15 17 21 22 21 23 21 21 16 14 17 16 12 13 17 18 18
4 5 4 2 6 5 6 9 7 5 5 7 7 8 8 9 10 13 15 11 10 10 10 11 12 12 11 13 19 20 22 20 20 19 17 15 13 16 15 14 16 18 19
3 4 3 3 4 6 5 5 5 7 8 9 9 10 10 10 10 12 13 11 10 11 13 7 4 8 9 12 14 15 18 19 20 22 23 20 18 18 18 15 14 14 15

GFSSE_700_spd_033.txt.gz
Wind_Speed
19 16 13 12 9 7 6 6 7 7 8 8 7 6 7 8 9 9 8 8 8 8 8 9 9 9 11 10 10 10 11 10 11 11 13 14 13 13 14 11 11 11 12
14 14 12 11 8 6 6 6 7 8 9 8 8 8 8 7 7 7 7 7 7 7 6 8 7 7 8 10 9 9 10 10 11 12 13 13 12 12 13 12 11 11 11
12 12 11 10 8 7 6 6 6 6 8 8 8 7 7 7 7 7 6 5 5 6 5 5 6 6 5 8 8 8 9 10 9 10 11 13 10 9 11 11 11 10 10
10 10 9 10 8 7 6 7 7 7 7 8 8 7 7 7 7 6 5 4 4 4 4 5 5 4 4 6 7 6 7 9 8 8 8 10 11 8 9 10 11 9 8
11 10 9 9 8 7 7 7 6 7 7 7 7 7 6 5 5 5 4 3 3 4 4 3 3 2 5 5 6 5 6 6 8 6 6 7 8 8 7 6 9 9 7
10 10 9 8 7 7 7 7 6 6 7 7 7 8 7 6 5 4 4 5 5 5 5 3 2 3 5 7 6 5 5 5 6 5 5 6 7 8 6 6 6 7 7
9 10 10 8 7 7 7 7 5 5 5 6 6 7 7 6 5 4 4 4 4 5 5 4 3 4 6 7 6 6 6 4 4 4 3 6 6 8 8 5 5 4 5
7 9 9 8 7 6 6 6 5 4 4 4 4 4 5 6 5 4 4 5 4 3 4 4 4 5 4 7 7 6 5 6 5 4 3 3 4 5 6 7 5 4 3
10 8 8 7 6 5 6 5 5 4 5 5 4 3 3 3 3 4 4 4 5 4 4 4 4 3 5 7 8 7 6 4 4 4 6 4 3 3 2 5 4 4 2
9 9 8 8 6 5 5 5 6 6 7 8 7 4 2 1 1 1 2 3 3 4 5 4 4 3 4 5 8 8 7 5 5 4 5 5 4 3 1 2 2 3 2
6 8 9 8 9 8 7 7 8 8 9 10 9 6 4 3 2 2 2 3 3 4 4 3 3 4 4 4 6 9 9 9 8 7 7 5 5 4 3 2 1 1 2
3 1 6 10 10 11 9 8 10 10 11 10 9 8 6 4 4 5 4 3 5 5 5 4 4 4 5 5 6 8 11 10 10 9 8 8 7 6 4 4 3 3 2
3 1 4 6 11 12 12 12 12 12 11 11 10 10 9 9 5 7 8 5 6 6 6 6 5 6 7 8 9 9 8 9 10 11 11 11 12 9 6 5 5 5 5
4 3 2 4 8 10 13 13 15 14 13 14 14 9 11 13 16 12 14 10 11 9 10 8 10 8 8 10 12 13 11 8 9 13 14 13 12 13 10 10 7 7 8
3 2 4 5 6 6 7 10 10 15 17 16 15 21 14 17 15 11 11 11 13 15 14 17 12 11 12 13 15 17 14 12 10 11 15 17 15 13 13 12 11 10 11
4 2 4 7 6 8 6 7 8 13 17 18 16 19 11 14 14 14 15 15 15 17 17 16 16 15 16 20 21 18 20 17 15 14 12 15 15 16 16 13 13 13 12
2 6 6 5 10 7 10 9 9 10 15 15 14 12 9 11 16 14 15 13 14 16 17 15 14 16 18 19 26 24 22 22 19 18 16 15 14 15 14 14 15 13 13
5 6 10 10 8 9 8 11 14 18 16 14 13 12 12 9 10 10 9 10 14 15 16 15 17 18 17 16 20 25 22 21 23 22 17 18 18 18 15 15 16 15 14
7 10 14 11 10 15 12 12 14 19 18 14 11 11 8 7 6 13 14 14 15 19 18 19 20 18 17 13 13 20 21 24 23 23 19 18 17 17 18 19 16 17 16
12 12 16 11 14 19 19 15 16 22 8 11 11 8 8 7 11 14 12 16 17 19 20 21 21 22 22 20 20 23 21 21 26 25 24 17 18 19 19 19 20 20 17
12 13 13 12 17 19 19 18 16 9 8 10 7 6 8 10 11 10 11 16 18 19 21 23 22 24 24 25 25 22 23 24 25 27 25 24 22 24 24 20 19 19 19
11 11 10 13 15 12 13 15 4 9 11 9 3 6 8 10 11 12 14 17 19 19 19 17 18 20 22 23 24 23 23 21 17 25 27 29 28 28 28 23 21 21 20
8 9 11 11 9 4 12 21 18 15 6 2 4 6 8 11 12 13 14 16 18 17 16 16 15 14 18 21 22 23 24 25 23 27 24 24 25 22 23 21 20 19 19
6 8 9 8 2 6 6 5 8 6 2 3 5 7 8 9 10 11 12 14 12 11 11 13 15 15 12 15 20 22 22 22 23 29 29 23 21 21 19 18 19 17 17
6 8 7 5 4 4 2 3 2 5 7 7 7 8 8 9 10 10 12 12 10 9 11 11 12 13 12 12 12 16 19 21 19 18 26 23 20 18 21 20 16 15 14
6 7 6 5 5 4 2 1 4 5 6 8 9 9 10 9 8 8 10 10 8 7 11 8 6 5 8 12 12 13 15 17 17 20 16 17 25 20 15 17 16 15 14

GFSSE_700_spd_036.txt.gz
Wind_Speed
14 12 11 10 10 7 7 5 6 5 5 5 6 6 7 8 8 8 8 8 9 7 7 8 8 7 8 8 9 8 8 9 10 11 11 15 14 11 13 14 13 12 13
11 11 9 9 8 6 6 5 5 6 6 5 6 8 8 7 7 7 7 8 8 8 6 5 7 7 7 7 8 9 9 9 10 12 12 14 13 11 11 13 13 12 13
12 9 8 7 6 6 5 5 5 6 6 6 6 5 6 6 7 6 6 6 5 5 6 6 5 6 6 7 7 8 9 9 10 10 11 13 12 12 10 9 12 11 12
11 9 7 6 5 5 5 5 5 5 6 6 6 6 6 6 6 4 4 5 4 4 4 2 5 5 5 6 7 7 8 8 10 10 9 10 10 10 11 7 9 10 10
13 10 8 7 4 4 5 6 5 6 6 6 6 5 6 6 5 5 4 3 3 4 4 3 5 3 5 5 6 7 7 7 8 8 8 7 8 9 9 8 6 7 9
12 10 9 7 5 5 5 5 5 5 6 6 6 6 6 6 6 5 4 5 4 3 2 2 3 5 4 4 4 6 8 8 8 8 7 6 6 7 6 8 6 6 6
10 9 9 7 5 5 5 5 4 5 5 6 6 5 4 3 4 4 5 4 5 4 3 2 2 4 7 6 4 5 5 6 5 6 6 5 4 6 6 5 7 5 5
10 8 7 7 7 5 5 5 4 4 5 6 6 5 4 3 2 2 3 4 5 4 3 3 3 4 8 7 5 4 4 4 4 5 6 5 5 5 5 6 5 5 4
11 9 8 6 6 5 4 5 5 4 4 5 6 6 5 3 2 1 1 2 3 3 4 3 2 5 6 6 7 6 5 5 3 4 6 6 5 5 4 6 4 4 4
10 10 9 8 7 6 6 5 5 5 5 5 5 5 5 4 3 2 0 2 2 2 4 4 3 2 4 6 8 7 8 6 5 5 5 6 6 6 5 5 5 5 4
8 9 9 9 9 8 7 7 6 6 7 7 6 5 4 3 3 3 2 2 2 3 3 3 4 3 3 3 5 8 7 7 6 5 5 5 5 5 5 5 5 4 5
6 6 8 9 10 10 9 8 8 9 9 9 9 7 6 5 5 3 3 3 3 3 2 3 4 5 5 4 4 6 8 8 8 8 7 8 6 5 5 5 4 4 5
5 3 4 7 10 11 12 12 11 11 10 11 11 10 9 9 6 4 6 6 4 4 4 4 4 7 7 8 7 7 5 6 9 10 10 9 10 8 7 5 5 5 5
2 2 2 5 7 11 13 13 14 13 13 14 12 12 12 11 11 11 11 11 8 6 6 7 7 9 10 11 11 11 11 8 8 11 12 11 10 11 10 9 8 7 7
3 1 3 5 5 5 8 12 14 14 16 14 16 19 21 16 16 15 12 12 11 11 11 13 13 14 14 13 13 14 15 14 11 11 13 12 13 12 13 13 12 11 9
4 4 5 5 3 3 5 9 14 13 14 14 18 14 11 11 15 13 12 12 14 14 15 15 16 16 17 18 18 19 19 18 16 14 12 13 13 14 15 15 13 14 11
5 5 7 4 6 8 12 10 11 12 11 12 13 12 10 11 13 14 14 14 15 14 13 15 18 18 18 19 19 21 25 21 19 17 16 14 13 14 14 15 16 15 14
6 8 12 14 14 7 11 10 16 19 14 17 13 10 10 12 8 9 10 11 15 13 14 14 18 19 20 20 19 23 26 26 24 22 19 19 18 16 14 14 14 14 15
9 10 10 8 10 12 15 14 14 17 16 20 13 11 10 10 9 10 12 16 18 16 17 19 19 21 21 20 19 18 18 26 20 21 24 20 20 18 17 17 19 19 17
8 11 12 7 13 15 18 17 14 11 16 9 12 8 8 8 11 11 13 13 16 19 19 20 21 23 23 22 22 18 17 21 22 23 25 22 18 15 16 16 18 19 18
8 9 9 8 13 15 16 15 10 13 8 10 8 5 7 8 10 10 12 13 15 19 20 19 21 23 23 23 23 22 21 22 23 22 24 24 18 16 16 17 18 19 20
6 7 7 10 11 8 9 23 8 4 11 10 3 2 5 8 9 10 12 14 16 17 18 19 18 15 17 20 21 20 23 23 21 21 20 24 24 22 23 22 26 24 22
5 6 6 9 8 1 7 19 28 13 6 4 3 5 7 9 10 11 12 15 16 18 17 16 15 14 15 17 19 20 21 21 19 19 18 23 24 23 27 27 24 23 22
7 7 8 9 5 2 5 9 11 11 8 4 6 7 8 10 10 11 12 14 14 12 11 13 16 16 14 14 15 18 20 19 19 21 24 23 20 19 22 23 20 18 16
9 6 10 6 4 4 5 4 5 5 5 7 7 8 8 8 9 8 9 12 11 9 9 12 11 10 10 11 11 15 18 19 19 18 21 26 25 23 23 21 21 18 15
12 5 9 7 4 4 4 3 4 6 7 9 10 11 11 9 7 8 8 7 9 6 7 7 7 7 5 8 9 11 11 15 16 16 18 19 25 25 20 18 18 18 17

GFSSE_700_spd_042.txt.gz
Wind_Speed
13 13 11 12 10 10 9 9 8 8 8 8 7 7 7 7 7 8 11 8 8 7 8 8 8 8 8 8 8 8 8 9 11 12 12 13 13 12 13 13 13 12 12
12 13 11 11 10 10 9 8 7 7 7 7 7 7 7 7 7 8 9 8 7 8 8 8 8 7 7 8 8 9 9 9 11 12 11 12 14 13 13 14 14 13 12
12 12 10 10 10 10 9 7 8 8 7 7 7 7 7 7 7 8 7 6 11 10 7 5 7 7 7 7 8 9 10 10 11 12 11 12 12 12 12 13 13 12 13
11 10 9 9 9 9 9 7 8 8 7 7 6 7 7 6 6 6 5 4 7 11 8 5 5 6 6 7 8 8 9 9 9 11 10 10 11 12 11 12 11 12 12
11 9 8 8 8 8 8 7 6 6 6 7 6 5 5 6 6 5 4 3 6 8 9 6 4 5 5 6 7 8 8 8 8 9 8 8 9 10 10 9 10 10 10
11 10 8 7 7 9 8 7 5 5 5 5 6 6 6 5 6 5 4 3 4 6 5 5 5 2 4 5 7 7 8 8 8 8 7 7 7 8 8 9 8 8 9
9 9 8 7 6 6 7 7 6 4 5 5 5 5 5 5 4 4 3 3 3 4 4 5 6 3 5 4 7 6 6 6 7 7 6 6 6 7 6 7 8 7 7
9 8 7 6 5 5 5 5 5 5 4 5 6 5 4 5 5 3 3 2 4 4 2 3 4 6 5 5 4 5 5 4 4 6 6 5 4 4 6 6 6 7 6
10 10 8 7 5 4 4 4 4 4 4 4 5 5 5 5 5 4 2 3 2 1 3 3 3 5 7 6 5 4 4 3 3 3 4 5 5 5 4 5 5 6 5
9 9 8 7 6 5 5 5 4 4 5 5 5 5 5 4 4 5 4 3 3 2 2 3 3 4 5 5 6 6 5 4 3 1 2 1 2 2 4 4 4 4 4
7 7 8 8 8 7 7 7 6 6 6 7 7 7 6 6 5 5 5 5 4 3 3 3 2 3 4 5 6 7 6 6 4 3 3 4 4 3 3 3 4 4 5
3 5 7 9 9 8 8 8 8 8 8 9 9 9 9 9 8 7 6 6 6 5 5 4 3 3 3 4 4 7 8 8 8 8 8 7 6 6 5 5 4 5 5
2 5 6 8 9 11 12 11 10 11 11 11 11 12 12 11 10 9 8 7 7 6 6 5 5 4 5 6 7 6 7 8 9 10 12 10 10 8 7 6 6 6 6
2 1 4 8 9 12 14 13 13 12 15 16 17 17 16 14 13 11 13 11 10 9 8 8 8 8 8 8 9 10 9 9 10 12 14 14 13 12 12 11 9 8 7
4 2 3 6 8 10 11 14 16 18 18 26 23 23 23 18 15 16 15 17 16 15 12 11 11 11 11 11 11 12 12 13 14 13 14 15 16 16 15 14 13 10 12
4 4 6 5 7 9 11 13 15 18 18 20 31 26 22 17 17 22 22 17 21 15 15 13 14 15 15 15 15 15 15 15 16 17 18 17 16 18 17 16 14 13 10
4 5 8 7 5 8 13 14 12 13 22 11 27 31 23 15 15 11 17 16 16 14 14 15 16 16 17 18 17 17 19 20 19 18 20 21 19 17 17 18 19 17 15
4 8 10 8 9 6 7 16 16 14 16 15 19 20 20 15 12 12 12 15 16 14 16 16 15 15 16 18 19 20 21 22 23 23 22 24 23 19 16 15 16 17 15
1 7 15 10 10 12 12 16 18 16 16 17 15 10 13 13 12 12 10 10 12 13 15 17 17 17 18 21 22 22 23 23 24 24 27 27 24 22 20 19 16 16 16
0 24 28 16 4 7 11 14 13 16 12 18 17 13 13 12 11 11 11 9 12 14 15 17 19 20 22 23 23 25 26 25 24 21 18 22 22 24 22 21 19 18 17
11 32 45 4 2 6 15 13 8 6 5 3 5 10 9 9 8 7 10 14 14 15 15 16 18 19 21 22 24 25 27 25 23 19 17 19 19 19 21 22 19 18 17
17 28 13 7 1 3 10 13 20 20 24 13 14 10 5 4 6 8 11 13 14 14 15 17 19 19 19 21 21 20 18 16 22 21 19 20 21 21 22 21 20 18 16
21 29 6 11 5 6 6 10 13 16 14 16 10 4 2 5 7 9 10 12 12 13 16 16 15 15 15 16 17 17 16 13 18 20 23 22 21 22 19 23 22 21 20
21 4 6 5 3 5 4 5 8 11 10 7 7 4 4 5 7 8 9 10 10 11 12 11 11 13 14 15 16 16 15 17 16 16 19 21 22 21 18 21 25 23 19
8 6 3 4 3 3 4 2 4 6 6 8 9 8 7 7 5 6 6 7 8 8 8 7 9 9 10 11 11 13 12 13 16 15 13 16 19 19 20 19 23 19 16
3 2 4 5 4 4 3 2 2 5 6 7 9 8 7 4 2 3 4 4 4 4 3 5 6 7 8 7 6 8 8 9 11 15 16 15 15 18 23 23 20 18 16

GFSSE_700_spd_045.txt.gz
Wind_Speed
10 10 8 9 10 10 10 8 8 8 7 7 7 8 8 8 9 10 6 7 9 9 9 9 9 8 8 7 8 7 7 7 10 10 11 12 10 10 12 12 11 12 11
10 9 8 9 11 11 10 8 7 7 7 7 7 7 6 6 6 8 6 5 8 8 8 8 9 8 7 7 7 8 8 8 10 10 12 12 11 11 11 11 12 12 11
9 9 8 9 10 11 10 8 7 7 7 7 6 6 6 5 5 5 7 4 7 3 6 8 7 7 7 7 8 8 10 10 10 9 10 12 11 12 11 11 11 11 11
10 9 8 8 9 10 9 8 8 7 6 6 5 5 6 5 4 5 7 8 12 5 7 7 6 6 6 7 7 8 9 10 9 8 10 6 10 10 11 11 10 10 12
9 9 7 7 8 10 10 9 8 8 6 6 5 5 5 6 5 3 6 7 8 5 8 7 5 4 6 6 7 7 8 8 8 6 10 10 9 9 9 10 9 9 10
11 8 5 6 7 8 9 9 8 7 7 6 5 5 5 5 4 4 4 7 7 5 2 5 4 2 4 5 5 6 6 6 7 9 6 6 6 8 7 8 8 8 9
9 8 6 5 5 6 6 7 7 7 6 5 5 4 4 4 4 3 3 4 6 5 3 2 2 4 3 5 5 5 5 4 2 6 5 3 6 5 5 5 7 7 6
7 7 7 6 5 6 6 6 5 5 6 5 4 4 3 4 3 3 3 3 4 4 5 3 3 4 2 3 3 5 5 3 2 3 5 4 4 4 3 3 4 5 5
12 7 8 8 7 7 7 6 5 5 5 6 5 5 5 4 4 3 3 3 4 3 3 4 4 6 5 4 4 3 4 3 1 2 2 3 2 2 3 2 2 3 3
10 8 9 8 6 5 6 7 6 6 5 6 7 6 6 6 5 5 5 4 4 3 3 3 3 5 6 6 7 6 4 3 2 5 4 3 2 2 2 3 3 3 4
8 8 6 7 7 6 7 7 6 6 7 6 7 8 8 7 6 5 5 5 5 5 5 4 3 3 4 6 6 6 6 5 5 6 6 3 2 2 2 3 4 4 4
7 9 7 8 8 8 7 8 8 8 8 8 9 10 8 7 8 8 6 6 6 6 8 7 6 5 4 5 5 7 8 7 6 8 6 6 5 4 5 5 5 5 5
6 8 8 8 10 10 4 11 10 10 11 11 12 12 13 14 13 13 9 7 7 8 9 10 6 6 6 6 6 6 8 6 5 7 9 11 10 9 8 7 7 6 5
5 8 11 8 9 10 13 13 10 10 13 16 13 15 16 20 17 15 12 10 10 11 10 11 7 8 7 7 7 9 9 8 11 13 19 14 14 13 12 10 9 8 7
5 5 10 6 6 10 9 13 14 17 19 21 16 20 19 21 18 19 18 20 17 16 14 9 10 9 10 10 10 11 12 12 12 12 16 11 14 15 16 15 14 12 11
7 4 5 5 8 9 11 14 15 17 20 25 19 26 28 24 25 25 20 19 18 21 24 16 13 13 14 15 15 14 15 15 15 16 18 17 14 15 17 17 15 15 15
7 4 4 10 16 12 9 15 18 21 22 23 28 21 25 30 25 21 17 23 27 14 14 14 15 15 16 16 17 18 17 19 18 20 19 20 20 18 17 18 18 19 16
15 18 35 14 18 14 8 12 20 23 20 22 18 20 24 29 32 17 14 11 15 14 14 16 16 17 17 18 18 19 19 20 20 20 21 21 22 22 20 17 16 17 17
9 28 28 30 13 10 9 14 19 24 24 23 19 15 11 25 21 16 13 10 13 16 14 14 16 18 18 19 18 20 21 22 23 23 22 23 24 26 21 18 18 16 15
28 38 27 29 6 3 12 13 16 22 23 14 13 14 11 15 14 11 11 10 10 12 13 15 15 19 20 22 21 23 21 23 24 24 24 25 26 21 24 25 21 18 19
19 19 20 8 7 6 11 16 19 16 5 4 2 10 14 14 11 9 10 12 13 14 14 15 16 17 18 20 22 22 23 23 25 25 23 22 15 17 22 24 26 20 22
8 22 12 9 6 4 9 12 13 23 22 16 13 9 9 8 7 9 10 11 12 14 15 16 16 18 19 20 21 22 22 20 16 17 18 15 18 21 22 22 22 21 20
10 14 8 5 3 1 8 9 12 13 16 13 9 6 6 3 7 10 11 13 13 14 14 14 14 15 16 16 14 17 17 16 13 14 19 18 22 22 24 25 23 30 19
14 12 8 6 7 3 2 6 9 10 11 12 9 5 3 6 8 9 10 11 11 11 11 12 11 12 13 13 15 16 16 15 14 15 16 20 22 22 21 22 19 19 17
11 5 6 6 7 6 3 5 7 9 8 8 9 8 7 6 6 5 6 7 8 9 9 7 7 8 9 10 11 12 13 12 14 15 11 11 16 18 19 21 20 20 20
5 5 5 6 7 8 6 4 4 6 10 7 9 8 7 6 4 4 5 5 6 6 5 4 5 6 8 8 7 6 8 10 9 11 15 13 11 11 14 17 20 18 18

GFSSE_700_spd_048.txt.gz
Wind_Speed
9 8 7 8 8 9 10 10 10 10 10 10 10 9 10 9 13 8 10 10 11 10 9 9 9 9 7 7 8 8 9 9 9 10 10 10 11 10 9 9 12 12 11
9 8 6 7 9 9 10 10 9 9 8 8 8 8 8 9 9 11 10 9 9 8 9 9 9 9 8 8 8 9 10 10 10 10 10 10 11 10 10 11 11 13 11
8 7 6 7 8 9 9 10 9 9 8 8 7 6 7 9 9 7 8 4 8 5 7 8 9 9 8 7 9 10 10 10 10 9 11 11 9 10 11 11 12 13 12
8 7 7 6 7 8 9 10 10 9 9 9 8 6 7 9 10 7 4 6 8 4 7 6 8 8 7 7 8 8 8 9 8 7 11 6 9 9 10 10 11 10 9
11 8 7 6 7 7 8 9 10 9 9 8 8 6 6 7 9 7 5 4 6 8 5 6 6 7 7 7 7 8 7 7 6 5 10 7 8 8 8 9 9 9 9
9 8 7 6 7 8 8 8 8 9 9 8 7 6 6 6 6 7 6 6 3 3 3 5 3 5 5 6 6 6 5 5 3 6 6 7 7 7 7 7 7 8 8
4 6 7 6 8 8 7 8 8 8 8 8 7 6 5 6 6 6 7 7 6 5 3 3 3 5 5 5 6 6 5 4 2 5 5 5 6 6 5 5 5 5 6
5 7 6 6 7 7 8 8 8 8 8 7 8 7 6 5 5 5 6 6 7 6 4 4 2 2 4 4 4 5 4 3 1 6 2 6 5 3 3 3 3 3 4
8 7 7 7 5 6 7 7 7 8 8 7 6 7 7 7 5 5 6 6 6 6 4 4 4 5 4 4 3 4 3 2 3 6 2 4 3 2 1 2 1 1 2
9 7 8 8 7 8 8 7 6 7 7 8 8 7 6 7 7 6 7 6 5 6 7 7 6 7 6 5 5 4 4 3 4 4 2 4 3 2 1 2 2 2 2
8 9 7 8 7 7 8 9 8 7 7 7 8 9 8 9 8 10 9 8 7 6 6 6 5 5 5 7 6 6 5 5 4 4 1 2 1 1 1 2 2 3 3
5 6 5 8 9 9 10 10 9 8 9 9 11 10 13 12 11 10 8 9 8 6 6 6 6 4 5 6 7 7 7 7 6 4 3 4 3 3 4 4 3 3 4
8 10 8 7 8 10 12 15 8 10 13 14 12 12 14 11 15 13 6 9 7 8 8 8 9 8 6 7 6 5 7 8 8 5 8 9 9 8 7 6 6 6 6
6 11 10 13 10 11 11 9 8 13 19 21 7 10 14 13 11 9 9 10 9 8 7 10 12 14 10 6 5 9 6 7 5 8 12 13 12 12 9 10 9 8 8
10 13 11 11 10 10 10 11 9 15 18 14 9 12 16 15 13 12 17 18 18 18 14 8 9 12 9 6 7 7 7 9 10 14 11 13 9 12 13 12 13 12 12
24 21 7 10 16 11 9 11 13 16 15 16 21 20 22 21 21 17 16 21 23 26 22 16 11 9 9 11 11 13 13 12 13 14 14 16 14 14 14 14 14 14 16
35 20 16 11 14 14 12 13 13 17 17 21 20 21 23 21 21 20 17 24 21 27 28 14 12 15 15 15 14 15 15 15 17 16 19 19 17 17 17 17 17 17 18
28 37 28 1 16 10 11 14 15 19 18 23 22 15 16 19 20 21 20 13 15 15 11 9 9 15 15 15 15 15 17 15 16 18 18 19 20 19 18 19 19 18 18
32 32 23 15 11 5 8 13 12 15 19 20 21 18 14 14 13 18 19 14 12 14 13 6 10 14 15 15 15 16 17 19 19 19 19 19 21 20 20 22 21 19 15
27 21 18 16 14 9 11 15 20 15 10 17 14 14 12 8 11 13 12 11 9 9 7 11 12 14 15 16 19 21 21 21 21 23 21 21 21 21 24 23 26 20 15
22 12 13 11 9 6 9 15 23 28 9 4 2 10 11 10 9 9 7 9 10 10 9 12 14 14 15 17 18 19 22 20 18 20 22 24 17 19 15 16 15 19 20
16 8 10 7 2 6 9 14 17 20 23 15 10 3 9 10 8 7 8 11 10 10 12 14 14 16 16 18 19 20 20 19 18 16 17 17 13 14 11 17 21 20 20
16 8 5 5 4 3 7 11 12 14 18 17 15 12 7 8 9 5 8 11 11 12 15 14 15 15 15 16 15 15 15 15 14 13 15 10 13 22 15 20 19 21 26
12 8 5 4 4 3 5 7 8 11 12 13 12 7 2 2 5 8 9 11 10 11 12 12 11 11 12 11 12 14 15 15 14 15 16 9 18 15 25 8 16 19 20
10 7 6 6 4 5 4 5 8 10 10 11 10 11 5 2 3 4 5 6 7 9 10 9 8 8 8 9 11 11 12 13 12 12 12 11 11 13 15 16 19 17 18
12 8 7 8 8 7 7 5 6 6 9 9 9 8 3 3 1 3 3 4 5 6 6 5 6 6 7 8 7 8 6 8 9 10 13 14 12 6 11 11 14 14 14